Time,TemperatureF,DewpointF,PressureIn,WindDirection,WindDirectionDegrees,WindSpeedMPH,WindSpeedGustMPH,Humidity,HourlyPrecipIn,Conditions,Clouds,dailyrainin,SoftwareType,DateUTC
2013-05-29 00:00:00,50.2,46.5,30.13,WNW,292,0.0,-999.0,87,-99.99,,,0.00,Acu-Link.com,2013-05-29 04:00:00,
2013-05-29 00:16:00,49.8,46.1,30.14,WNW,292,0.0,-999.0,87,-99.99,,,0.00,Acu-Link.com,2013-05-29 04:16:00,
2013-05-29 00:31:00,49.3,45.9,30.14,WNW,292,0.0,-999.0,88,-99.99,,,0.00,Acu-Link.com,2013-05-29 04:31:00,
2013-05-29 00:46:00,48.7,45.6,30.13,WNW,292,0.0,-999.0,89,-99.99,,,0.00,Acu-Link.com,2013-05-29 04:46:00,
2013-05-29 01:01:00,48.6,45.5,30.14,WNW,292,0.0,-999.0,89,-99.99,,,0.00,Acu-Link.com,2013-05-29 05:01:00,
2013-05-29 01:16:00,48.4,45.6,30.13,WNW,292,0.0,-999.0,90,-99.99,,,0.00,Acu-Link.com,2013-05-29 05:16:00,
2013-05-29 01:31:00,48.0,45.5,30.12,WNW,292,0.0,-999.0,91,-99.99,,,0.00,Acu-Link.com,2013-05-29 05:31:00,
2013-05-29 01:46:00,47.8,45.6,30.12,WNW,292,0.0,-999.0,92,-99.99,,,0.00,Acu-Link.com,2013-05-29 05:46:00,
2013-05-29 02:02:00,47.7,45.2,30.11,WNW,292,0.0,-999.0,91,-99.99,,,0.00,Acu-Link.com,2013-05-29 06:02:00,
2013-05-29 02:17:00,47.7,45.5,30.12,West,270,0.0,-999.0,92,-99.99,,,0.00,Acu-Link.com,2013-05-29 06:17:00,
2013-05-29 02:32:00,47.5,45.3,30.11,West,270,0.0,-999.0,92,-99.99,,,0.00,Acu-Link.com,2013-05-29 06:32:00,
2013-05-29 02:47:00,47.3,45.4,30.10,WNW,292,0.0,-999.0,93,-99.99,,,0.00,Acu-Link.com,2013-05-29 06:47:00,
2013-05-29 03:02:00,47.3,45.4,30.11,WNW,292,0.0,-999.0,93,-99.99,,,0.00,Acu-Link.com,2013-05-29 07:02:00,
2013-05-29 03:18:00,47.3,45.1,30.10,WNW,292,0.0,-999.0,92,-99.99,,,0.00,Acu-Link.com,2013-05-29 07:18:00,
2013-05-29 03:48:00,47.7,45.5,30.10,West,270,0.0,-999.0,92,-99.99,,,0.00,Acu-Link.com,2013-05-29 07:48:00,
2013-05-29 04:04:00,47.8,45.9,30.10,WNW,292,0.0,-999.0,93,-99.99,,,0.00,Acu-Link.com,2013-05-29 08:04:00,
2013-05-29 04:19:00,47.8,45.9,30.10,WNW,292,0.0,-999.0,93,-99.99,,,0.00,Acu-Link.com,2013-05-29 08:19:00,
2013-05-29 04:34:00,47.8,45.9,30.10,WNW,292,0.0,-999.0,93,-99.99,,,0.00,Acu-Link.com,2013-05-29 08:34:00,
2013-05-29 04:50:00,47.8,46.4,30.10,WNW,292,0.0,-999.0,95,-99.99,,,0.00,Acu-Link.com,2013-05-29 08:50:00,
2013-05-29 05:05:00,47.8,46.4,30.11,ESE,112,0.0,-999.0,95,-99.99,,,0.00,Acu-Link.com,2013-05-29 09:05:00,
2013-05-29 05:20:00,47.8,46.7,30.10,NNW,337,0.0,-999.0,96,-99.99,,,0.00,Acu-Link.com,2013-05-29 09:20:00,
2013-05-29 05:35:00,47.8,47.3,30.10,NNW,337,0.0,-999.0,98,-99.99,,,0.00,Acu-Link.com,2013-05-29 09:35:00,
2013-05-29 05:50:00,47.8,47.3,30.12,NNW,337,0.0,-999.0,98,-99.99,,,0.00,Acu-Link.com,2013-05-29 09:50:00,
2013-05-29 06:06:00,47.8,47.3,30.12,SSW,202,0.0,-999.0,98,-99.99,,,0.00,Acu-Link.com,2013-05-29 10:06:00,
2013-05-29 06:21:00,47.8,47.3,30.10,NW,315,0.0,-999.0,98,-99.99,,,0.00,Acu-Link.com,2013-05-29 10:21:00,
2013-05-29 06:36:00,48.2,47.7,30.11,SW,225,0.0,-999.0,98,-99.99,,,0.00,Acu-Link.com,2013-05-29 10:36:00,
2013-05-29 06:51:00,48.6,48.1,30.10,SSW,202,0.0,-999.0,98,-99.99,,,0.00,Acu-Link.com,2013-05-29 10:51:00,
2013-05-29 07:06:00,48.6,48.1,30.10,ESE,112,0.0,-999.0,98,-99.99,,,0.00,Acu-Link.com,2013-05-29 11:06:00,
2013-05-29 07:22:00,48.6,48.1,30.10,East,90,0.0,-999.0,98,-99.99,,,0.00,Acu-Link.com,2013-05-29 11:22:00,
2013-05-29 07:37:00,48.7,48.2,30.11,NNE,22,0.0,-999.0,98,-99.99,,,0.01,Acu-Link.com,2013-05-29 11:37:00,
2013-05-29 07:52:00,48.7,48.2,30.11,South,180,0.0,-999.0,98,-99.99,,,0.01,Acu-Link.com,2013-05-29 11:52:00,
2013-05-29 08:08:00,48.7,48.2,30.12,NNE,22,0.0,-999.0,98,-99.99,,,0.01,Acu-Link.com,2013-05-29 12:08:00,
2013-05-29 08:23:00,48.9,48.4,30.12,SSW,202,0.0,-999.0,98,-99.99,,,0.02,Acu-Link.com,2013-05-29 12:23:00,
2013-05-29 08:38:00,48.9,48.4,30.11,NNW,337,0.0,-999.0,98,-99.99,,,0.03,Acu-Link.com,2013-05-29 12:38:00,
2013-05-29 08:53:00,49.1,48.6,30.11,NNE,22,0.0,-999.0,98,-99.99,,,0.03,Acu-Link.com,2013-05-29 12:53:00,
2013-05-29 09:08:00,49.1,48.6,30.10,NW,315,0.0,-999.0,98,-99.99,,,0.04,Acu-Link.com,2013-05-29 13:08:00,
2013-05-29 09:24:00,49.1,48.6,30.11,SSW,202,0.0,-999.0,98,-99.99,,,0.04,Acu-Link.com,2013-05-29 13:24:00,
2013-05-29 09:39:00,49.3,48.8,30.09,SSW,202,0.0,-999.0,98,-99.99,,,0.04,Acu-Link.com,2013-05-29 13:39:00,
2013-05-29 09:54:00,49.5,49.0,30.09,SSW,202,0.0,-999.0,98,-99.99,,,0.04,Acu-Link.com,2013-05-29 13:54:00,
2013-05-29 10:10:00,49.8,49.3,30.09,South,180,0.0,-999.0,98,-99.99,,,0.04,Acu-Link.com,2013-05-29 14:10:00,
2013-05-29 10:25:00,50.0,49.5,30.09,NE,45,0.0,-999.0,98,-99.99,,,0.04,Acu-Link.com,2013-05-29 14:25:00,
2013-05-29 10:40:00,50.2,49.7,30.07,East,90,0.0,-999.0,98,-99.99,,,0.06,Acu-Link.com,2013-05-29 14:40:00,
2013-05-29 10:55:00,50.4,49.9,30.07,ESE,112,0.0,-999.0,98,-99.99,,,0.08,Acu-Link.com,2013-05-29 14:55:00,
2013-05-29 11:11:00,50.5,50.0,30.07,SE,135,0.0,-999.0,98,-99.99,,,0.09,Acu-Link.com,2013-05-29 15:11:00,
2013-05-29 11:26:00,50.9,50.4,30.06,West,270,0.0,-999.0,98,-99.99,,,0.12,Acu-Link.com,2013-05-29 15:26:00,
2013-05-29 11:41:00,51.1,50.6,30.06,ESE,112,0.0,-999.0,98,-99.99,,,0.15,Acu-Link.com,2013-05-29 15:41:00,
2013-05-29 11:57:00,51.3,50.8,30.05,NE,45,0.0,-999.0,98,-99.99,,,0.17,Acu-Link.com,2013-05-29 15:57:00,
2013-05-29 12:12:00,51.6,51.1,30.05,NE,45,0.0,-999.0,98,-99.99,,,0.18,Acu-Link.com,2013-05-29 16:12:00,
2013-05-29 12:27:00,52.2,51.7,30.06,SW,225,0.0,-999.0,98,-99.99,,,0.20,Acu-Link.com,2013-05-29 16:27:00,
2013-05-29 12:42:00,52.7,52.2,30.04,NNW,337,0.0,-999.0,98,-99.99,,,0.20,Acu-Link.com,2013-05-29 16:42:00,
2013-05-29 12:57:00,53.4,52.8,30.04,NE,45,0.0,-999.0,98,-99.99,,,0.20,Acu-Link.com,2013-05-29 16:57:00,
2013-05-29 13:13:00,53.8,53.2,30.05,WSW,247,0.0,-999.0,98,-99.99,,,0.20,Acu-Link.com,2013-05-29 17:13:00,
2013-05-29 13:28:00,54.0,53.4,30.05,NNW,337,0.0,-999.0,98,-99.99,,,0.20,Acu-Link.com,2013-05-29 17:28:00,
2013-05-29 13:43:00,54.1,53.5,30.05,NE,45,0.0,-999.0,98,-99.99,,,0.20,Acu-Link.com,2013-05-29 17:43:00,
2013-05-29 13:58:00,54.1,53.5,30.04,West,270,0.0,-999.0,98,-99.99,,,0.20,Acu-Link.com,2013-05-29 17:58:00,
2013-05-29 14:13:00,54.1,53.5,30.04,WNW,292,0.0,-999.0,98,-99.99,,,0.20,Acu-Link.com,2013-05-29 18:13:00,
2013-05-29 14:29:00,54.5,53.9,30.04,SW,225,0.0,-999.0,98,-99.99,,,0.20,Acu-Link.com,2013-05-29 18:29:00,
2013-05-29 14:44:00,55.6,55.0,30.02,SW,225,0.0,-999.0,98,-99.99,,,0.20,Acu-Link.com,2013-05-29 18:44:00,
2013-05-29 14:59:00,55.9,55.3,30.02,North,0,0.0,-999.0,98,-99.99,,,0.20,Acu-Link.com,2013-05-29 18:59:00,
2013-05-29 15:15:00,55.6,55.0,30.02,WSW,247,0.0,-999.0,98,-99.99,,,0.20,Acu-Link.com,2013-05-29 19:15:00,
2013-05-29 15:30:00,55.9,55.3,30.02,West,270,0.0,-999.0,98,-99.99,,,0.20,Acu-Link.com,2013-05-29 19:30:00,
2013-05-29 15:45:00,56.5,55.9,30.01,NW,315,0.0,-999.0,98,-99.99,,,0.20,Acu-Link.com,2013-05-29 19:45:00,
2013-05-29 16:00:00,56.7,56.1,30.01,SSE,157,0.0,-999.0,98,-99.99,,,0.20,Acu-Link.com,2013-05-29 20:00:00,
2013-05-29 16:15:00,56.8,56.2,30.01,NW,315,0.0,-999.0,98,-99.99,,,0.20,Acu-Link.com,2013-05-29 20:15:00,
2013-05-29 16:31:00,57.0,56.4,29.99,SW,225,0.0,-999.0,98,-99.99,,,0.20,Acu-Link.com,2013-05-29 20:31:00,
2013-05-29 16:46:00,57.0,56.4,30.00,NW,315,0.0,-999.0,98,-99.99,,,0.20,Acu-Link.com,2013-05-29 20:46:00,
2013-05-29 17:01:00,56.8,56.2,29.99,West,270,0.0,-999.0,98,-99.99,,,0.20,Acu-Link.com,2013-05-29 21:01:00,
2013-05-29 17:17:00,56.7,56.1,30.00,WNW,292,0.0,-999.0,98,-99.99,,,0.21,Acu-Link.com,2013-05-29 21:17:00,
2013-05-29 17:32:00,56.7,56.1,29.99,NNE,22,0.0,-999.0,98,-99.99,,,0.21,Acu-Link.com,2013-05-29 21:32:00,
2013-05-29 17:47:00,56.7,56.1,29.99,North,0,0.0,-999.0,98,-99.99,,,0.21,Acu-Link.com,2013-05-29 21:47:00,
2013-05-29 18:02:00,56.5,55.9,29.98,NNW,337,0.0,-999.0,98,-99.99,,,0.21,Acu-Link.com,2013-05-29 22:02:00,
2013-05-29 18:17:00,56.3,55.7,29.98,NW,315,0.0,-999.0,98,-99.99,,,0.21,Acu-Link.com,2013-05-29 22:17:00,
2013-05-29 18:33:00,56.1,55.5,29.98,WNW,292,0.0,-999.0,98,-99.99,,,0.21,Acu-Link.com,2013-05-29 22:33:00,
2013-05-29 18:48:00,56.1,55.5,29.97,WNW,292,0.0,-999.0,98,-99.99,,,0.21,Acu-Link.com,2013-05-29 22:48:00,
2013-05-29 19:03:00,55.9,55.3,29.97,WNW,292,0.0,-999.0,98,-99.99,,,0.21,Acu-Link.com,2013-05-29 23:03:00,
2013-05-29 19:18:00,55.8,55.2,29.97,NW,315,0.0,-999.0,98,-99.99,,,0.21,Acu-Link.com,2013-05-29 23:18:00,
2013-05-29 19:33:00,55.6,55.0,29.97,NW,315,0.0,-999.0,98,-99.99,,,0.21,Acu-Link.com,2013-05-29 23:33:00,
2013-05-29 19:49:00,55.4,54.8,29.97,NNW,337,0.0,-999.0,98,-99.99,,,0.21,Acu-Link.com,2013-05-29 23:49:00,
2013-05-29 20:04:00,55.4,54.8,29.98,WSW,247,0.0,-999.0,98,-99.99,,,0.21,Acu-Link.com,2013-05-30 00:04:00,
2013-05-29 20:19:00,55.2,54.6,29.97,WNW,292,0.0,-999.0,98,-99.99,,,0.21,Acu-Link.com,2013-05-30 00:19:00,
2013-05-29 20:34:00,55.0,54.4,29.96,NW,315,0.0,-999.0,98,-99.99,,,0.21,Acu-Link.com,2013-05-30 00:34:00,
2013-05-29 20:50:00,55.0,54.4,29.96,NW,315,0.0,-999.0,98,-99.99,,,0.21,Acu-Link.com,2013-05-30 00:50:00,
2013-05-29 21:05:00,55.0,54.4,29.96,WNW,292,0.0,-999.0,98,-99.99,,,0.21,Acu-Link.com,2013-05-30 01:05:00,
2013-05-29 21:20:00,54.9,54.3,29.96,NW,315,0.0,-999.0,98,-99.99,,,0.21,Acu-Link.com,2013-05-30 01:20:00,
2013-05-29 21:35:00,54.9,54.3,29.95,WNW,292,0.0,-999.0,98,-99.99,,,0.21,Acu-Link.com,2013-05-30 01:35:00,
2013-05-29 21:50:00,54.9,54.3,29.96,WNW,292,0.0,-999.0,98,-99.99,,,0.21,Acu-Link.com,2013-05-30 01:50:00,
2013-05-29 22:06:00,54.7,54.1,29.95,WNW,292,0.0,-999.0,98,-99.99,,,0.21,Acu-Link.com,2013-05-30 02:06:00,
2013-05-29 22:21:00,54.7,54.1,29.96,NW,315,0.0,-999.0,98,-99.99,,,0.21,Acu-Link.com,2013-05-30 02:21:00,
2013-05-29 22:36:00,54.5,53.9,29.95,NW,315,0.0,-999.0,98,-99.99,,,0.21,Acu-Link.com,2013-05-30 02:36:00,
2013-05-29 22:51:00,54.5,53.9,29.95,NNW,337,0.0,-999.0,98,-99.99,,,0.21,Acu-Link.com,2013-05-30 02:51:00,
2013-05-29 23:06:00,54.5,53.9,29.96,NNW,337,0.0,-999.0,98,-99.99,,,0.21,Acu-Link.com,2013-05-30 03:06:00,
2013-05-29 23:22:00,54.5,53.9,29.95,SSE,157,0.0,-999.0,98,-99.99,,,0.21,Acu-Link.com,2013-05-30 03:22:00,
2013-05-29 23:37:00,54.5,53.9,29.95,ENE,67,0.0,-999.0,98,-99.99,,,0.21,Acu-Link.com,2013-05-30 03:37:00,
2013-05-29 23:52:00,54.5,53.9,29.96,ESE,112,0.0,-999.0,98,-99.99,,,0.21,Acu-Link.com,2013-05-30 03:52:00,